Location: Bavegemberg
(50.9500°N, 3.8833°E)
Time: 13:19:21
(UTC+00:00)

Cosmos 2251 Rocket - Pass Details

Date: 23 May 2024
Orbit: 762 x 790 km, 74.0° (Epoch: 16 June)

Event Time Altitude Azimuth Distance (km) Brightness Sun altitude
Exits shadow 00:44:25 25° 226° (SW) 1,517 4.5 -17.1°
Maximum altitude 00:47:25 61° 298° (WNW) 876 3.8 -16.9°
Drops below altitude 10° 00:52:40 10° 19° (NNE) 2,332 7.4 -16.7°
Sets 00:55:06 0° 23° (NNE) 3,268 8.6 -16.6°
